FDX1042 KSAN-KSFO

Flight info

Callsign FDX1042
Flight time 1h 12m
Altitude 38000
Route PADRZ2 IKAYE RIZIN SPLNT STOKD SERFR SERFR4
Aircraft E190/M-SDE3GILORVW/S

Departure

Time 2026-04-21 20:16
Airport San Diego International Airport (KSAN)

Arrival

Time 2026-04-21 21:28
Airport San Francisco International Airport (KSFO)
Time Latitude Longitude Altitude Speed Heading
2026-04-21 20:03 32.73617 -117.18616 20 ft 0 kts 265°
2026-04-21 20:08 32.73618 -117.18600 21 ft 4 kts 262°
2026-04-21 20:08 32.73624 -117.18568 21 ft 4 kts 250°
2026-04-21 20:08 32.73635 -117.18540 24 ft 4 kts 234°
2026-04-21 20:09 32.73641 -117.18530 24 ft 0 kts 233°
2026-04-21 20:11 32.73634 -117.18538 23 ft 2 kts 217°
2026-04-21 20:12 32.73611 -117.18534 24 ft 5 kts 153°
2026-04-21 20:12 32.73575 -117.18503 23 ft 8 kts 144°
2026-04-21 20:12 32.73544 -117.18476 24 ft 9 kts 143°
2026-04-21 20:12 32.73464 -117.18410 24 ft 12 kts 147°
2026-04-21 20:13 32.73384 -117.18401 23 ft 12 kts 197°
2026-04-21 20:13 32.73321 -117.18351 23 ft 13 kts 108°
2026-04-21 20:13 32.73293 -117.18237 22 ft 16 kts 106°
2026-04-21 20:13 32.73261 -117.18107 22 ft 17 kts 106°
2026-04-21 20:14 32.73229 -117.17966 22 ft 19 kts 104°
2026-04-21 20:14 32.73192 -117.17810 22 ft 20 kts 106°
2026-04-21 20:14 32.73161 -117.17695 22 ft 13 kts 119°
2026-04-21 20:14 32.73111 -117.17671 21 ft 8 kts 186°
2026-04-21 20:15 32.73060 -117.17703 20 ft 9 kts 247°
2026-04-21 20:15 32.73071 -117.17790 20 ft 12 kts 287°
2026-04-21 20:15 32.73162 -117.18150 23 ft 86 kts 287°
2026-04-21 20:15 32.73393 -117.19144 29 ft 161 kts 283°
2026-04-21 20:16 32.73761 -117.20582 587 ft 197 kts 286°
2026-04-21 20:16 32.74435 -117.22219 1131 ft 233 kts 303°
2026-04-21 20:16 32.75350 -117.23717 1720 ft 230 kts 304°
2026-04-21 20:16 32.76276 -117.25242 2384 ft 227 kts 304°
2026-04-21 20:17 32.77205 -117.26781 3086 ft 229 kts 304°
2026-04-21 20:17 32.78160 -117.28332 3675 ft 238 kts 307°
2026-04-21 20:17 32.79481 -117.29602 4292 ft 255 kts 326°
2026-04-21 20:17 32.81037 -117.30608 4917 ft 257 kts 330°
2026-04-21 20:18 32.82125 -117.31246 5322 ft 258 kts 331°
2026-04-21 20:18 32.84348 -117.32332 6134 ft 264 kts 337°
2026-04-21 20:18 32.86095 -117.33053 6758 ft 268 kts 338°
2026-04-21 20:18 32.87880 -117.33768 7362 ft 274 kts 338°
2026-04-21 20:19 32.89709 -117.34503 7979 ft 280 kts 337°
2026-04-21 20:19 32.91573 -117.35253 8600 ft 286 kts 336°
2026-04-21 20:19 32.93474 -117.36032 9237 ft 291 kts 333°
2026-04-21 20:19 32.95294 -117.37081 9894 ft 292 kts 324°
2026-04-21 20:20 32.97031 -117.38347 10491 ft 293 kts 320°
2026-04-21 20:20 32.98724 -117.39697 11092 ft 294 kts 319°
2026-04-21 20:20 33.00354 -117.41156 11685 ft 292 kts 312°
2026-04-21 20:20 33.01378 -117.42201 12108 ft 293 kts 312°
2026-04-21 20:21 33.03429 -117.44323 12954 ft 297 kts 311°
2026-04-21 20:21 33.04997 -117.45966 13591 ft 304 kts 311°
2026-04-21 20:21 33.06616 -117.47665 14092 ft 315 kts 311°
2026-04-21 20:21 33.08282 -117.49407 14572 ft 321 kts 311°
2026-04-21 20:22 33.09399 -117.50573 14885 ft 322 kts 311°
2026-04-21 20:22 33.12774 -117.54107 15139 ft 322 kts 310°
2026-04-21 20:22 33.14462 -117.55873 15267 ft 323 kts 311°
2026-04-21 20:23 33.16173 -117.57609 15371 ft 322 kts 310°
2026-04-21 20:23 33.17819 -117.59420 15494 ft 322 kts 309°
2026-04-21 20:23 33.19464 -117.61230 15901 ft 322 kts 309°
2026-04-21 20:23 33.21113 -117.63057 16403 ft 325 kts 309°
2026-04-21 20:24 33.22781 -117.64901 16911 ft 327 kts 309°
2026-04-21 20:24 33.24432 -117.66774 17442 ft 327 kts 306°
2026-04-21 20:24 33.25996 -117.68762 17996 ft 328 kts 304°
2026-04-21 20:24 33.27506 -117.70771 18517 ft 330 kts 303°
2026-04-21 20:25 33.28956 -117.72890 18974 ft 327 kts 298°
2026-04-21 20:25 33.30307 -117.75089 19444 ft 329 kts 298°
2026-04-21 20:25 33.31649 -117.77303 19917 ft 330 kts 297°
2026-04-21 20:25 33.32995 -117.79543 20414 ft 332 kts 297°
2026-04-21 20:26 33.34347 -117.81797 20886 ft 334 kts 297°
2026-04-21 20:26 33.35709 -117.84065 21381 ft 336 kts 297°
2026-04-21 20:26 33.37078 -117.86347 21888 ft 339 kts 297°
2026-04-21 20:26 33.38456 -117.88645 22403 ft 341 kts 296°
2026-04-21 20:27 33.39843 -117.90958 22927 ft 343 kts 296°
2026-04-21 20:27 33.41235 -117.93281 23457 ft 344 kts 296°
2026-04-21 20:27 33.42634 -117.95615 23943 ft 345 kts 296°
2026-04-21 20:27 33.44013 -117.97920 24391 ft 345 kts 296°
2026-04-21 20:28 33.45411 -118.00256 24831 ft 345 kts 296°
2026-04-21 20:28 33.46812 -118.02600 25304 ft 345 kts 295°
2026-04-21 20:28 33.48207 -118.04936 25783 ft 345 kts 295°
2026-04-21 20:28 33.49613 -118.07298 26015 ft 353 kts 295°
2026-04-21 20:29 33.51067 -118.09740 26089 ft 365 kts 295°
2026-04-21 20:29 33.52569 -118.12256 26130 ft 377 kts 296°
2026-04-21 20:29 33.54122 -118.14857 26146 ft 389 kts 296°
2026-04-21 20:29 33.55718 -118.17538 26151 ft 400 kts 296°
2026-04-21 20:30 33.57356 -118.20288 26155 ft 409 kts 296°
2026-04-21 20:30 33.59008 -118.23057 26134 ft 407 kts 296°
2026-04-21 20:30 33.60650 -118.25826 26134 ft 406 kts 296°
2026-04-21 20:30 33.62272 -118.28558 26138 ft 406 kts 296°
2026-04-21 20:31 33.63905 -118.31315 26270 ft 404 kts 296°
2026-04-21 20:31 33.65535 -118.34064 26648 ft 404 kts 296°
2026-04-21 20:31 33.67163 -118.36813 27029 ft 404 kts 295°
2026-04-21 20:31 33.68791 -118.39567 27410 ft 404 kts 295°
2026-04-21 20:32 33.70418 -118.42315 27792 ft 404 kts 295°
2026-04-21 20:32 33.72043 -118.45068 28178 ft 404 kts 295°
2026-04-21 20:32 33.73667 -118.47817 28581 ft 403 kts 295°
2026-04-21 20:32 33.75286 -118.50559 28987 ft 402 kts 295°
2026-04-21 20:33 33.76900 -118.53299 29399 ft 401 kts 294°
2026-04-21 20:33 33.78512 -118.56032 29806 ft 399 kts 294°
2026-04-21 20:33 33.80115 -118.58758 30223 ft 398 kts 294°
2026-04-21 20:33 33.81714 -118.61476 30584 ft 397 kts 294°
2026-04-21 20:34 33.83287 -118.64151 30943 ft 396 kts 294°
2026-04-21 20:34 33.84873 -118.66852 31323 ft 394 kts 294°
2026-04-21 20:34 33.86449 -118.69536 31706 ft 392 kts 294°
2026-04-21 20:34 33.88063 -118.72204 31995 ft 397 kts 297°
2026-04-21 20:35 33.91832 -118.77288 32122 ft 420 kts 305°
2026-04-21 20:35 33.96259 -118.82018 32120 ft 424 kts 307°
2026-04-21 20:36 34.00699 -118.86687 32097 ft 423 kts 307°
2026-04-21 20:36 34.05131 -118.91352 32119 ft 423 kts 307°
2026-04-21 20:37 34.09563 -118.96023 32120 ft 422 kts 307°
2026-04-21 20:37 34.13671 -119.00914 32127 ft 407 kts 298°
2026-04-21 20:38 34.16988 -119.06295 32121 ft 397 kts 291°
2026-04-21 20:38 34.19929 -119.11912 32107 ft 395 kts 291°
2026-04-21 20:39 34.22828 -119.17542 32116 ft 394 kts 291°
2026-04-21 20:39 34.25717 -119.23164 32111 ft 393 kts 291°
2026-04-21 20:40 34.28602 -119.28786 32111 ft 393 kts 291°
2026-04-21 20:40 34.31479 -119.34398 32097 ft 393 kts 290°
2026-04-21 20:41 34.34357 -119.40022 32110 ft 392 kts 290°
2026-04-21 20:41 34.37227 -119.45636 32123 ft 392 kts 291°
2026-04-21 20:42 34.40216 -119.51193 32114 ft 399 kts 295°
2026-04-21 20:42 34.41902 -119.53827 32004 ft 401 kts 297°
2026-04-21 20:42 34.43736 -119.56409 31861 ft 409 kts 302°
2026-04-21 20:43 34.45716 -119.58890 31728 ft 410 kts 302°
2026-04-21 20:43 34.47716 -119.61370 31626 ft 412 kts 302°
2026-04-21 20:43 34.49730 -119.63849 31511 ft 412 kts 302°
2026-04-21 20:43 34.51744 -119.66324 31380 ft 413 kts 302°
2026-04-21 20:44 34.53761 -119.68811 31277 ft 413 kts 302°
2026-04-21 20:44 34.55783 -119.71300 31152 ft 414 kts 303°
2026-04-21 20:44 34.57799 -119.73790 31034 ft 415 kts 303°
2026-04-21 20:44 34.59822 -119.76285 30919 ft 415 kts 302°
2026-04-21 20:45 34.61847 -119.78780 30669 ft 413 kts 302°
2026-04-21 20:45 34.63860 -119.81279 30433 ft 416 kts 302°
2026-04-21 20:45 34.65892 -119.83790 30225 ft 418 kts 303°
2026-04-21 20:45 34.67936 -119.86321 29988 ft 418 kts 302°
2026-04-21 20:46 34.69975 -119.88847 29761 ft 419 kts 302°
2026-04-21 20:46 34.72016 -119.91379 29564 ft 419 kts 303°
2026-04-21 20:46 34.74049 -119.93902 29283 ft 417 kts 302°
2026-04-21 20:46 34.76085 -119.96430 28995 ft 418 kts 303°
2026-04-21 20:47 34.78087 -119.98921 28669 ft 417 kts 303°
2026-04-21 20:47 34.80113 -120.01436 28340 ft 414 kts 302°
2026-04-21 20:47 34.82119 -120.03937 28065 ft 411 kts 302°
2026-04-21 20:47 34.84112 -120.06412 27755 ft 406 kts 302°
2026-04-21 20:48 34.86081 -120.08874 27490 ft 406 kts 302°
2026-04-21 20:48 34.88053 -120.11336 27257 ft 405 kts 302°
2026-04-21 20:48 34.90016 -120.13785 27016 ft 403 kts 302°
2026-04-21 20:48 34.91961 -120.16220 26733 ft 400 kts 302°
2026-04-21 20:49 34.93896 -120.18637 26453 ft 397 kts 302°
2026-04-21 20:49 34.95817 -120.21039 26219 ft 395 kts 302°
2026-04-21 20:49 34.97734 -120.23438 25998 ft 393 kts 302°
2026-04-21 20:49 34.99637 -120.25823 25776 ft 391 kts 302°
2026-04-21 20:50 35.01534 -120.28197 25538 ft 390 kts 302°
2026-04-21 20:50 35.03412 -120.30559 25313 ft 387 kts 302°
2026-04-21 20:50 35.05284 -120.32911 25198 ft 385 kts 302°
2026-04-21 20:50 35.07133 -120.35274 25147 ft 383 kts 302°
2026-04-21 20:51 35.09027 -120.37546 25114 ft 389 kts 306°
2026-04-21 20:51 35.11005 -120.39786 25131 ft 388 kts 305°
2026-04-21 20:51 35.12994 -120.42016 25124 ft 388 kts 306°
2026-04-21 20:51 35.14984 -120.44247 25133 ft 388 kts 306°
2026-04-21 20:52 35.16975 -120.46473 25131 ft 388 kts 305°
2026-04-21 20:52 35.18970 -120.48708 25130 ft 388 kts 306°
2026-04-21 20:52 35.20967 -120.50946 25123 ft 389 kts 305°
2026-04-21 20:52 35.22959 -120.53186 25112 ft 389 kts 305°
2026-04-21 20:53 35.24955 -120.55427 25107 ft 389 kts 306°
2026-04-21 20:53 35.26941 -120.57659 25129 ft 387 kts 306°
2026-04-21 20:53 35.28929 -120.59893 25149 ft 387 kts 306°
2026-04-21 20:53 35.30912 -120.62130 25156 ft 387 kts 306°
2026-04-21 20:54 35.32895 -120.64361 25148 ft 387 kts 306°
2026-04-21 20:54 35.34852 -120.66567 25135 ft 388 kts 306°
2026-04-21 20:54 35.36835 -120.68801 25127 ft 387 kts 306°
2026-04-21 20:54 35.38810 -120.71036 25149 ft 387 kts 306°
2026-04-21 20:55 35.40792 -120.73272 25146 ft 387 kts 306°
2026-04-21 20:55 35.42773 -120.75512 25119 ft 386 kts 306°
2026-04-21 20:55 35.44746 -120.77743 25091 ft 386 kts 306°
2026-04-21 20:55 35.46725 -120.79973 25079 ft 387 kts 306°
2026-04-21 20:56 35.48764 -120.82159 25106 ft 393 kts 310°
2026-04-21 20:56 35.50944 -120.84211 25102 ft 394 kts 311°
2026-04-21 20:56 35.53126 -120.86258 25101 ft 395 kts 311°
2026-04-21 20:56 35.55322 -120.88295 25094 ft 396 kts 311°
2026-04-21 20:57 35.57520 -120.90333 25107 ft 396 kts 312°
2026-04-21 20:57 35.59726 -120.92377 25093 ft 397 kts 312°
2026-04-21 20:57 35.61940 -120.94436 25088 ft 399 kts 312°
2026-04-21 20:57 35.64124 -120.96462 25090 ft 398 kts 312°
2026-04-21 20:58 35.66332 -120.98519 25104 ft 397 kts 312°
2026-04-21 20:58 35.68538 -121.00571 25086 ft 397 kts 312°
2026-04-21 20:58 35.70742 -121.02628 25090 ft 398 kts 313°
2026-04-21 20:58 35.72955 -121.04688 25100 ft 398 kts 313°
2026-04-21 20:59 35.75156 -121.06741 25093 ft 397 kts 312°
2026-04-21 20:59 35.77358 -121.08799 25078 ft 397 kts 313°
2026-04-21 20:59 35.79561 -121.10862 25073 ft 397 kts 313°
2026-04-21 20:59 35.81768 -121.12922 25094 ft 398 kts 313°
2026-04-21 21:00 35.83976 -121.14988 25095 ft 399 kts 313°
2026-04-21 21:00 35.86161 -121.17035 25085 ft 399 kts 313°
2026-04-21 21:00 35.88369 -121.19105 25080 ft 399 kts 313°
2026-04-21 21:00 35.90589 -121.21188 25075 ft 400 kts 313°
2026-04-21 21:01 35.92810 -121.23271 25076 ft 400 kts 313°
2026-04-21 21:01 35.95027 -121.25353 25087 ft 401 kts 313°
2026-04-21 21:01 35.97250 -121.27445 25084 ft 402 kts 314°
2026-04-21 21:01 35.99474 -121.29534 25071 ft 402 kts 314°
2026-04-21 21:02 36.01704 -121.31634 25082 ft 403 kts 314°
2026-04-21 21:02 36.03901 -121.33706 25077 ft 403 kts 314°
2026-04-21 21:02 36.06136 -121.35813 25060 ft 405 kts 315°
2026-04-21 21:02 36.08507 -121.37740 25069 ft 408 kts 319°
2026-04-21 21:03 36.10893 -121.39641 24884 ft 409 kts 319°
2026-04-21 21:03 36.13303 -121.41516 24681 ft 406 kts 320°
2026-04-21 21:03 36.15640 -121.43333 24451 ft 388 kts 320°
2026-04-21 21:03 36.17891 -121.45090 24203 ft 379 kts 319°
2026-04-21 21:04 36.20134 -121.46855 23981 ft 385 kts 320°
2026-04-21 21:04 36.22412 -121.48625 23775 ft 386 kts 321°
2026-04-21 21:04 36.24680 -121.50399 23534 ft 386 kts 321°
2026-04-21 21:04 36.26953 -121.52178 23260 ft 386 kts 321°
2026-04-21 21:05 36.29219 -121.53950 23000 ft 384 kts 321°
2026-04-21 21:05 36.31449 -121.55698 22751 ft 384 kts 321°
2026-04-21 21:05 36.33706 -121.57469 22471 ft 382 kts 321°
2026-04-21 21:05 36.35956 -121.59235 22195 ft 383 kts 322°
2026-04-21 21:06 36.38207 -121.61006 21904 ft 383 kts 322°
2026-04-21 21:06 36.40457 -121.62771 21644 ft 382 kts 322°
2026-04-21 21:06 36.42695 -121.64532 21403 ft 380 kts 322°
2026-04-21 21:06 36.44929 -121.66290 21153 ft 380 kts 322°
2026-04-21 21:07 36.47163 -121.68048 20890 ft 379 kts 322°
2026-04-21 21:07 36.49385 -121.69801 20627 ft 378 kts 322°
2026-04-21 21:07 36.51606 -121.71553 20335 ft 377 kts 322°
2026-04-21 21:07 36.53069 -121.72710 20134 ft 376 kts 322°
2026-04-21 21:08 36.55271 -121.74451 19825 ft 375 kts 322°
2026-04-21 21:08 36.57468 -121.76191 19533 ft 374 kts 322°
2026-04-21 21:08 36.59662 -121.77924 19252 ft 373 kts 322°
2026-04-21 21:08 36.62559 -121.80220 18871 ft 371 kts 323°
2026-04-21 21:09 36.64027 -121.81382 18679 ft 370 kts 323°
2026-04-21 21:09 36.66199 -121.83105 18390 ft 369 kts 323°
2026-04-21 21:09 36.68358 -121.84818 18055 ft 367 kts 323°
2026-04-21 21:09 36.70511 -121.86527 17670 ft 365 kts 323°
2026-04-21 21:10 36.72738 -121.87988 17233 ft 368 kts 332°
2026-04-21 21:10 36.75139 -121.89206 16694 ft 367 kts 335°
2026-04-21 21:10 36.77505 -121.90257 16171 ft 365 kts 339°
2026-04-21 21:10 36.79969 -121.91016 15646 ft 363 kts 343°
2026-04-21 21:11 36.82426 -121.91735 15136 ft 361 kts 343°
2026-04-21 21:11 36.84871 -121.92419 14643 ft 359 kts 344°
2026-04-21 21:11 36.87306 -121.93097 14151 ft 357 kts 344°
2026-04-21 21:11 36.89721 -121.93772 13642 ft 354 kts 344°
2026-04-21 21:12 36.92127 -121.94436 13094 ft 352 kts 345°
2026-04-21 21:12 36.94503 -121.95101 12559 ft 348 kts 342°
2026-04-21 21:12 36.96815 -121.95956 12035 ft 345 kts 340°
2026-04-21 21:12 36.99102 -121.96827 11458 ft 341 kts 339°
2026-04-21 21:13 37.01337 -121.97697 10900 ft 333 kts 339°
2026-04-21 21:13 37.03496 -121.98541 10403 ft 326 kts 339°
2026-04-21 21:13 37.05642 -121.99376 9884 ft 321 kts 339°
2026-04-21 21:13 37.07762 -122.00208 9333 ft 316 kts 339°
2026-04-21 21:14 37.09843 -122.01021 8809 ft 311 kts 340°
2026-04-21 21:14 37.11897 -122.01825 8268 ft 307 kts 340°
2026-04-21 21:14 37.13885 -122.02599 8108 ft 290 kts 339°
2026-04-21 21:14 37.15840 -122.03012 8031 ft 285 kts
2026-04-21 21:15 37.17715 -122.02282 7963 ft 285 kts 32°
2026-04-21 21:15 37.19124 -122.00547 7894 ft 286 kts 55°
2026-04-21 21:15 37.20287 -121.98528 7844 ft 286 kts 55°
2026-04-21 21:15 37.21507 -121.96551 7781 ft 286 kts 51°
2026-04-21 21:16 37.22842 -121.94691 7553 ft 289 kts 47°
2026-04-21 21:16 37.24285 -121.92904 6921 ft 293 kts 41°
2026-04-21 21:16 37.25890 -121.91306 6309 ft 295 kts 37°
2026-04-21 21:16 37.27511 -121.89756 5754 ft 289 kts 37°
2026-04-21 21:17 37.29111 -121.88258 5219 ft 285 kts 37°
2026-04-21 21:17 37.30685 -121.86782 4695 ft 280 kts 37°
2026-04-21 21:17 37.32237 -121.85323 4148 ft 278 kts 37°
2026-04-21 21:17 37.33735 -121.83852 3642 ft 276 kts 38°
2026-04-21 21:18 37.35282 -121.82474 3459 ft 265 kts 34°
2026-04-21 21:18 37.36853 -121.81234 3872 ft 268 kts 29°
2026-04-21 21:18 37.38561 -121.80278 4284 ft 271 kts 15°
2026-04-21 21:18 37.40404 -121.79812 4702 ft 271 kts
2026-04-21 21:19 37.42279 -121.79926 5173 ft 270 kts 348°
2026-04-21 21:19 37.44081 -121.80551 5644 ft 269 kts 333°
2026-04-21 21:19 37.45723 -121.81665 5903 ft 268 kts 321°
2026-04-21 21:19 37.47087 -121.83225 5967 ft 263 kts 308°
2026-04-21 21:20 37.48125 -121.85100 5979 ft 258 kts 290°
2026-04-21 21:20 37.48722 -121.87221 5771 ft 258 kts 282°
2026-04-21 21:20 37.49131 -121.89400 5532 ft 254 kts 274°
2026-04-21 21:20 37.49304 -121.91555 5304 ft 247 kts 271°
2026-04-21 21:21 37.49471 -121.93666 5070 ft 238 kts 273°
2026-04-21 21:21 37.49581 -121.95708 4858 ft 229 kts 268°
2026-04-21 21:21 37.49658 -121.97689 4636 ft 225 kts 269°
2026-04-21 21:21 37.49735 -121.99662 4381 ft 225 kts 269°
2026-04-21 21:22 37.49813 -122.01623 4135 ft 223 kts 269°
2026-04-21 21:22 37.49892 -122.03569 3896 ft 222 kts 269°
2026-04-21 21:22 37.49968 -122.05505 3616 ft 219 kts 269°
2026-04-21 21:22 37.50042 -122.07383 3322 ft 210 kts 269°
2026-04-21 21:23 37.50294 -122.09176 3101 ft 210 kts 287°
2026-04-21 21:23 37.50959 -122.10825 3047 ft 213 kts 294°
2026-04-21 21:23 37.51612 -122.12437 3174 ft 198 kts 291°
2026-04-21 21:23 37.52216 -122.13935 3157 ft 189 kts 293°
2026-04-21 21:24 37.52855 -122.15421 3154 ft 191 kts 293°
2026-04-21 21:24 37.53481 -122.16921 3127 ft 193 kts 293°
2026-04-21 21:24 37.54087 -122.18369 3029 ft 186 kts 293°
2026-04-21 21:24 37.54694 -122.19805 2825 ft 186 kts 292°
2026-04-21 21:25 37.55300 -122.21256 2627 ft 187 kts 292°
2026-04-21 21:25 37.55889 -122.22653 2411 ft 177 kts 292°
2026-04-21 21:25 37.56444 -122.23975 2126 ft 165 kts 292°
2026-04-21 21:25 37.56974 -122.25245 1891 ft 162 kts 293°
2026-04-21 21:26 37.57497 -122.26488 1690 ft 159 kts 293°
2026-04-21 21:26 37.58009 -122.27710 1558 ft 153 kts 292°
2026-04-21 21:26 37.58506 -122.28898 1458 ft 156 kts 293°
2026-04-21 21:26 37.59011 -122.30097 1177 ft 153 kts 294°
2026-04-21 21:27 37.59500 -122.31271 871 ft 150 kts 293°
2026-04-21 21:27 37.59981 -122.32419 660 ft 147 kts 293°
2026-04-21 21:27 37.60461 -122.33552 468 ft 144 kts 292°
2026-04-21 21:27 37.60922 -122.34664 241 ft 143 kts 292°
2026-04-21 21:28 37.61374 -122.35757 72 ft 138 kts 293°
2026-04-21 21:28 37.61792 -122.36754 17 ft 102 kts 296°
2026-04-21 21:28 37.62018 -122.37294 15 ft 24 kts 297°
2026-04-21 21:29 37.62104 -122.37501 17 ft 30 kts 297°
2026-04-21 21:29 37.62195 -122.37753 19 ft 32 kts 280°
2026-04-21 21:29 37.62222 -122.38024 23 ft 31 kts 276°
2026-04-21 21:29 37.62224 -122.38302 20 ft 33 kts 266°
2026-04-21 21:30 37.62214 -122.38561 19 ft 24 kts 268°
2026-04-21 21:30 37.62275 -122.38760 14 ft 26 kts 299°
2026-04-21 21:30 37.62344 -122.38924 17 ft 18 kts 297°
2026-04-21 21:30 37.62405 -122.39075 15 ft 20 kts 297°
2026-04-21 21:31 37.62469 -122.39229 18 ft 20 kts 300°
2026-04-21 21:31 37.62538 -122.39385 17 ft 21 kts 300°
2026-04-21 21:31 37.62561 -122.39511 18 ft 14 kts 252°
2026-04-21 21:31 37.62526 -122.39633 20 ft 16 kts 250°
2026-04-21 21:32 37.62481 -122.39758 18 ft 10 kts 253°
2026-04-21 21:32 37.62494 -122.39834 19 ft 4 kts 300°
2026-04-21 21:32 37.62508 -122.39876 16 ft 3 kts 291°
2026-04-21 21:32 37.62508 -122.39877 16 ft 0 kts 291°
2026-04-21 21:33 37.62544 -122.39923 17 ft 0 kts 264°